Location: Dampvalley
(47.9094°N, 6.1967°E)
Time: 04:49:08
(UTC+00:00)

SO-50 - Pass Details

Date: 06 December 2021
Orbit: 595 x 689 km, 64.6° (Epoch: 19 January)

Event Time Altitude Azimuth Distance (km) Brightness Sun altitude
Rises 17:04:38 0° 311° (NW) 3,031 ? -13.1°
Reaches altitude 10° 17:07:22 10° 297° (WNW) 2,124 ? -13.5°
Maximum altitude 17:11:04 22° 247° (WSW) 1,478 ? -14.1°
Drops below altitude 10° 17:14:46 10° 197° (SSW) 2,132 ? -14.7°
Sets 17:17:32 0° 182° (S) 3,045 ? -15.1°
